Theta_e
294 295 295 297 296 296 297 297 296 295 296 296 296 296 295 296 295 293 295 293 294 295 296 298 299 302 303 303 304 303 304 304 307 309 310 311 314 317 317 321 323 325 326 327 329 330 330 331 331 333 334 336 337 338 339 340 341 343 345 346 346 346 347 347 348 349 350 350 351 351 351 351 351 352 352 352 353 353 353 352 352 351 351 351 350 349 350
292 294 295 297 295 295 295 296 296 297 297 296 297 298 297 296 297 298 297 295 296 297 299 299 300 301 303 302 304 309 309 307 308 310 310 311 313 315 317 319 322 324 326 327 329 330 331 331 332 332 334 335 336 337 338 340 341 343 345 346 346 346 346 347 349 350 350 351 351 351 350 350 351 352 352 352 352 352 352 352 352 352 352 351 350 349 349
290 293 296 296 295 294 294 296 296 296 297 298 298 298 298 298 297 297 295 295 296 299 299 303 304 305 302 306 310 308 308 307 309 309 309 310 312 314 317 320 321 324 325 327 328 330 331 332 332 333 334 335 337 338 339 340 341 343 345 345 346 346 346 348 349 350 350 350 351 350 350 351 351 351 351 352 352 352 352 352 352 352 352 350 350 350 349
287 292 293 294 295 295 294 294 295 295 295 294 296 296 298 297 295 296 296 294 295 298 300 301 302 301 303 303 303 305 308 309 313 313 311 311 311 312 314 318 321 323 324 325 326 328 330 332 333 334 335 336 337 337 339 340 341 343 344 345 345 346 347 348 349 349 350 350 351 351 351 351 351 351 352 352 351 352 352 352 352 352 351 351 350 350 350
284 291 293 292 293 293 292 294 297 297 297 297 296 297 300 301 300 297 295 296 300 301 303 301 302 302 301 301 301 304 306 306 308 312 314 314 313 313 315 318 321 322 324 325 327 328 330 332 334 335 336 336 337 338 339 341 343 343 344 345 346 346 347 348 349 349 350 350 350 351 351 351 352 352 351 351 351 351 351 352 352 351 351 351 350 350 350
285 290 291 293 289 284 289 298 299 300 298 297 296 296 296 298 300 301 302 302 302 302 301 301 302 303 303 302 305 304 308 310 312 311 313 316 318 318 319 318 320 323 325 326 327 329 332 334 335 337 338 337 339 340 341 342 342 343 344 345 346 347 348 348 349 350 350 350 350 351 352 352 352 352 351 351 351 352 352 352 351 351 351 351 351 350 350
284 289 290 288 283 287 297 299 302 308 302 299 299 299 298 298 299 300 299 300 301 302 303 303 305 305 316 319 325 326 327 318 317 317 317 317 320 321 322 321 321 323 326 327 328 329 330 333 335 337 338 339 340 341 342 342 343 343 344 345 346 347 348 349 350 350 351 350 350 351 352 352 352 352 352 352 352 352 352 351 351 351 351 350 351 350 350
289 287 285 281 284 293 297 299 305 312 304 305 299 297 300 300 299 300 299 300 301 302 301 302 304 318 323 325 325 328 330 329 327 326 326 328 330 328 328 325 323 324 325 327 328 329 333 335 336 337 337 339 340 341 342 342 342 343 344 345 346 347 348 349 350 351 351 351 351 352 352 352 352 352 352 352 351 352 352 352 352 352 352 352 351 350 351
283 284 284 286 293 293 295 300 305 307 304 305 302 294 296 299 303 300 300 300 300 301 301 302 312 321 321 320 323 328 331 329 330 330 329 330 331 333 334 334 330 327 327 329 330 335 334 335 336 337 338 340 341 341 341 342 343 343 344 344 345 346 348 349 350 351 352 351 351 351 352 351 351 351 352 352 353 353 352 351 351 350 351 351 351 351 350
290 284 282 284 283 283 289 303 309 312 312 312 310 303 299 303 308 305 302 300 301 303 305 310 319 318 316 313 318 324 330 332 330 331 330 332 333 334 335 336 337 337 332 332 334 333 334 335 337 339 340 340 341 341 341 342 342 342 343 343 345 346 347 349 350 352 352 352 351 351 351 351 351 351 352 353 353 353 352 351 350 351 351 351 351 351 350
288 286 282 281 282 286 294 303 308 311 313 313 312 300 296 301 309 313 304 301 302 304 307 315 315 312 308 307 315 320 328 330 331 329 330 331 332 333 334 334 336 336 336 334 336 336 334 335 336 339 340 340 340 340 341 342 342 342 342 343 344 346 347 349 351 352 353 353 353 352 351 351 352 352 352 352 353 353 353 353 352 352 351 351 351 351 351
289 287 284 283 288 289 300 306 309 311 313 314 303 291 291 304 315 317 311 304 303 305 312 317 314 311 305 307 318 325 329 330 330 329 329 330 330 331 333 335 337 337 339 339 337 336 335 336 338 340 341 341 341 340 341 341 341 341 342 344 345 346 348 349 351 352 353 353 353 353 352 353 353 353 353 352 352 352 352 353 352 352 351 350 350 350 351
290 291 287 289 292 299 307 308 311 313 314 304 294 290 296 312 314 319 319 312 308 308 314 315 312 313 316 319 325 329 329 328 329 330 331 331 331 331 333 334 337 336 336 338 338 338 338 339 340 341 341 341 341 341 342 341 341 342 344 346 347 348 348 349 350 351 352 353 353 353 354 353 353 353 353 352 352 352 351 352 352 351 350 350 349 350 350
287 289 287 288 291 297 309 310 311 312 306 293 291 302 312 313 315 322 324 320 315 313 315 315 321 324 327 328 328 327 327 327 328 329 330 330 331 332 334 335 335 336 335 335 337 337 337 339 341 342 342 340 341 342 342 341 343 345 346 346 346 346 347 347 349 350 351 353 354 354 354 354 353 353 354 354 353 352 352 351 350 350 349 349 349 349 350
294 294 290 288 284 295 312 310 309 311 302 300 308 310 313 315 321 323 323 323 322 323 323 326 326 325 325 326 326 326 326 327 327 327 328 328 328 329 331 331 334 335 333 332 333 334 337 338 339 341 343 341 342 342 342 344 347 349 349 347 347 347 346 347 347 349 351 351 352 354 354 353 353 352 353 353 353 352 351 350 350 349 349 349 348 348 349
290 292 290 288 296 306 312 310 303 307 310 313 313 312 311 319 321 320 321 323 325 326 325 324 324 324 323 323 325 325 325 326 328 328 329 329 330 331 332 332 333 334 334 334 334 336 337 338 339 339 340 341 341 341 341 344 346 348 350 348 348 347 346 346 347 348 349 350 352 353 354 354 353 353 353 353 353 352 351 350 349 348 349 349 348 347 347
298 294 299 306 309 311 311 311 310 312 314 314 313 313 313 313 314 317 320 323 325 325 325 324 323 323 324 323 324 324 325 327 328 328 329 330 330 330 331 331 333 334 334 334 334 335 336 337 338 338 338 339 339 339 340 341 344 347 348 348 348 347 346 346 346 348 349 350 351 352 353 353 352 352 352 352 351 352 351 350 349 348 348 348 347 346 346
308 308 311 312 312 311 311 313 314 312 313 314 314 311 309 311 312 314 314 316 319 321 324 323 323 323 324 324 325 326 327 328 329 330 330 331 332 332 332 332 333 333 333 334 334 334 335 336 336 337 336 337 337 337 340 341 343 346 347 347 347 347 347 347 347 348 348 348 350 351 352 353 353 353 352 351 351 351 351 350 350 349 348 347 346 346 345
299 293 311 310 310 311 311 311 313 315 315 314 314 311 311 311 312 312 314 315 318 319 323 324 323 324 325 324 325 326 327 327 328 329 330 330 331 331 330 332 333 332 331 330 331 332 333 334 335 336 336 337 337 338 339 341 343 344 346 347 347 347 347 348 348 348 347 347 348 349 351 352 353 353 353 352 351 349 350 350 350 349 348 346 345 345 344
298 299 308 311 313 311 312 311 310 311 313 314 315 314 313 313 313 313 314 315 315 316 317 320 321 321 323 322 322 323 324 325 327 328 329 330 331 332 332 333 333 332 331 329 330 331 332 333 335 336 336 336 337 337 339 340 341 341 342 343 345 347 348 348 348 348 347 348 347 347 349 350 351 351 352 352 351 350 349 350 349 348 348 346 345 344 344
303 310 310 312 312 311 311 312 312 313 314 314 315 316 314 313 312 313 315 315 314 315 314 317 319 319 320 322 323 323 324 324 325 326 327 329 330 332 332 333 333 332 332 331 330 331 331 333 335 335 336 337 337 337 338 339 340 340 339 338 340 342 344 348 349 348 347 347 347 347 348 350 351 352 351 351 351 352 353 354 352 350 349 348 347 347 345
295 300 304 310 301 301 308 311 312 313 316 316 315 315 315 314 312 313 314 314 315 315 314 314 316 318 319 321 322 322 322 323 324 326 327 328 329 330 332 334 334 334 334 333 331 330 330 332 334 335 336 336 336 338 337 338 338 338 338 338 339 339 338 339 341 345 347 348 348 347 348 348 349 350 340 322 337 352 352 339 335 332 333 346 348 347 344
297 306 310 310 309 309 310 312 313 314 316 316 314 313 314 314 314 314 314 313 313 314 315 315 315 314 315 317 320 321 321 323 324 326 327 328 329 330 333 333 333 334 334 333 333 332 331 332 334 335 335 336 336 336 337 336 336 335 335 336 335 333 334 335 334 335 336 337 340 345 348 349 349 348 346 334 311 310 321 333 327 320 318 322 325 330 338
304 310 313 312 309 307 310 312 312 313 316 317 315 316 316 316 316 316 315 315 313 313 315 316 316 314 313 314 316 317 318 320 323 325 326 327 328 330 332 332 333 333 333 334 333 332 333 333 333 333 334 335 335 336 336 336 335 334 334 333 331 330 331 332 332 332 331 330 330 330 331 336 343 348 344 339 333 313 309 317 320 315 314 312 313 316 319
303 313 315 313 312 312 313 312 313 314 317 316 314 315 316 316 317 318 316 316 317 316 315 315 315 315 313 313 314 315 316 318 320 322 323 325 325 325 327 329 330 331 331 333 334 334 334 334 335 335 334 335 336 337 335 334 333 333 332 332 331 331 331 331 330 330 330 329 328 328 327 327 328 333 336 336 337 330 318 306 311 312 310 310 310 311 311
312 314 315 314 313 313 314 314 314 315 315 316 314 314 318 320 319 317 317 317 317 318 317 315 314 313 313 313 314 315 316 317 320 320 318 318 319 320 321 323 326 328 329 330 331 332 332 332 333 334 334 335 336 336 337 335 333 331 330 330 330 330 331 330 329 329 330 329 329 328 327 327 326 328 328 330 332 332 322 316 314 308 304 306 306 304 304
313 315 313 310 309 310 313 310 309 315 316 316 314 314 316 317 318 318 317 317 318 318 317 316 315 314 314 315 316 317 317 317 318 317 318 318 318 318 318 321 324 326 327 326 327 331 331 331 331 332 332 334 335 337 337 336 334 334 334 334 332 335 336 335 329 329 329 331 330 330 330 329 328 327 327 327 326 327 328 326 324 321 315 312 307 308 309
313 315 313 307 305 307 309 313 314 314 314 314 314 315 316 316 316 315 315 315 315 316 316 316 315 314 314 314 314 314 315 315 315 316 316 316 317 318 318 319 321 324 324 325 325 327 329 329 329 330 330 332 335 337 338 337 335 334 333 332 332 332 331 332 330 330 330 330 330 328 328 328 329 328 328 326 324 322 319 323 323 319 314 314 314 310 306
312 314 312 312 311 312 312 313 312 312 312 314 315 314 315 313 313 313 313 314 314 314 313 314 316 315 314 314 314 314 314 315 315 316 317 318 319 318 318 318 320 324 324 324 324 325 326 327 328 329 329 331 334 335 337 336 334 333 333 332 332 332 332 331 331 330 329 329 329 330 328 327 327 327 326 325 323 321 322 321 320 314 309 308 308 308 307
313 313 312 311 311 311 310 309 310 311 312 312 312 313 314 313 312 312 313 314 314 313 314 314 314 314 315 313 313 313 314 314 315 317 318 319 320 320 320 320 321 323 323 323 323 324 324 325 327 327 329 331 333 335 336 336 335 335 334 334 333 333 332 331 331 330 330 329 329 328 329 328 327 326 325 323 322 322 322 321 322 323 316 317 315 312 308
310 312 312 311 311 311 310 310 311 311 312 312 313 312 313 313 312 312 312 313 314 314 315 315 315 314 314 314 313 313 314 315 317 318 319 320 320 321 322 322 322 321 321 322 324 325 325 325 326 327 329 331 332 333 334 334 334 334 333 332 331 325 323 324 327 330 330 330 330 329 328 328 328 327 325 323 322 322 320 322 323 323 322 319 315 311 309
310 310 310 310 310 310 310 311 311 311 312 313 313 312 312 312 311 312 314 313 313 314 314 315 314 314 315 316 316 316 317 318 318 319 320 320 321 321 322 322 323 325 323 324 326 326 326 326 325 327 331 332 332 332 332 333 333 334 333 334 333 332 328 325 330 330 331 331 330 329 329 328 327 326 325 323 322 321 321 321 322 321 321 317 312 311 311
308 307 307 309 310 310 310 311 312 312 313 313 313 314 314 314 314 315 314 315 315 315 314 314 315 316 317 318 318 318 318 319 319 320 320 320 321 322 323 324 323 323 324 325 326 327 327 327 328 327 329 332 333 332 331 330 331 332 332 333 333 333 333 327 327 331 332 330 329 328 328 328 327 325 324 323 323 323 322 321 321 321 318 315 312 312 313
309 308 308 310 310 309 309 310 312 312 313 315 315 316 316 316 315 315 315 317 316 316 316 316 317 318 318 318 318 318 319 319 318 318 319 320 321 322 323 324 324 324 324 326 326 327 328 329 331 330 329 330 333 333 331 331 329 329 330 331 331 331 332 332 332 332 331 330 330 330 329 328 327 325 324 323 323 323 322 321 321 318 316 313 312 312 306
314 313 314 314 314 314 314 313 313 314 314 313 314 315 315 316 316 317 318 316 315 316 318 319 319 318 318 317 317 317 317 316 316 317 318 320 321 322 323 324 324 324 323 324 325 326 328 330 333 334 331 330 332 333 333 331 331 329 329 330 331 331 332 332 331 331 330 330 330 329 328 328 327 327 326 324 323 322 322 322 321 319 316 313 312 312 310
314 313 313 313 314 315 314 315 315 315 315 315 315 315 315 316 316 315 315 315 317 318 318 318 318 318 317 316 316 316 316 316 317 317 318 319 320 321 321 321 321 321 321 321 323 326 328 330 336 336 331 331 333 332 335 334 331 331 331 330 329 330 330 330 330 330 330 330 330 328 328 329 328 327 326 324 323 323 322 321 320 319 316 314 312 311 311
314 313 313 313 314 314 314 315 315 315 315 315 315 315 315 316 316 317 318 317 317 318 318 318 317 316 316 317 317 318 317 317 317 317 317 318 319 319 318 318 319 319 319 318 321 325 328 331 334 333 330 329 332 335 338 338 332 329 329 329 329 328 328 328 328 328 328 329 328 330 330 328 327 327 326 324 323 322 322 321 321 318 316 315 313 313 313
314 313 313 312 313 313 314 315 316 316 316 316 317 317 317 315 316 316 316 317 317 317 317 317 316 317 317 317 317 316 317 317 317 317 317 317 317 317 316 317 316 318 317 318 321 324 328 331 332 329 327 328 329 332 336 337 334 328 328 327 327 326 326 325 324 325 326 327 328 328 328 327 327 326 325 325 324 323 322 322 320 318 316 315 314 314 315
313 314 314 314 314 314 314 315 316 316 316 315 315 316 318 318 317 316 316 316 317 319 317 316 316 315 314 314 313 314 315 316 317 317 317 317 318 316 316 317 318 319 320 323 322 324 328 329 328 326 327 327 328 328 332 334 332 325 326 325 325 324 323 323 323 323 324 325 325 325 325 325 325 325 324 324 324 323 323 322 320 319 316 315 314 314 314
310 311 311 312 312 312 312 313 314 314 315 316 315 315 316 317 316 316 316 316 316 318 316 315 314 313 313 312 312 313 314 316 317 317 316 317 317 317 317 318 320 321 323 325 322 323 327 328 326 324 325 326 328 327 327 330 328 324 323 323 323 324 324 324 323 323 324 324 324 324 322 322 323 323 322 322 322 322 322 322 320 318 317 316 315 314 315
308 308 309 309 309 309 309 310 310 311 312 312 313 314 315 314 314 313 313 313 314 315 314 313 312 312 312 313 313 314 316 317 318 317 317 317 316 315 315 314 319 321 322 322 322 323 324 325 324 323 324 324 326 329 325 326 322 322 322 323 324 324 323 323 322 322 322 322 323 322 322 323 323 323 322 322 322 321 320 319 319 317 317 316 315 316 316
308 309 308 308 308 309 308 309 309 308 308 309 311 310 310 310 310 308 309 309 309 310 311 314 316 312 312 313 314 314 314 316 316 316 316 316 315 314 313 314 318 320 324 323 321 321 320 321 322 325 323 323 323 327 326 322 321 322 322 323 323 323 323 323 322 321 322 322 322 322 322 322 322 321 320 321 321 321 320 318 317 316 316 315 315 315 316
307 307 307 307 307 308 308 308 307 307 307 308 309 309 309 309 309 309 309 309 308 308 308 309 311 312 312 311 310 310 310 313 314 314 313 313 314 314 313 313 316 319 322 320 319 318 319 320 321 321 324 322 321 323 320 316 318 319 320 320 322 321 321 321 320 319 319 319 319 319 320 320 320 319 319 319 318 318 319 318 317 316 315 315 315 316 316
307 307 306 307 307 308 307 307 307 307 306 306 308 308 309 309 309 309 309 309 308 309 307 307 308 308 309 308 308 307 307 308 309 310 309 309 310 312 314 315 316 319 321 318 317 318 318 318 319 321 323 323 322 320 315 313 313 313 313 315 316 318 320 319 319 319 319 319 319 318 318 317 319 320 320 320 320 319 318 317 316 316 315 315 314 315 315
305 306 307 307 307 307 307 307 307 306 307 308 308 308 307 307 307 308 308 308 308 308 309 307 307 307 306 306 305 305 306 306 307 308 307 307 307 308 313 317 316 317 318 319 316 316 317 317 318 321 320 318 318 317 312 312 311 312 311 311 312 312 312 313 314 315 317 316 317 319 320 318 319 318 319 320 319 319 319 317 316 315 316 314 314 314 315
303 304 305 309 306 306 307 307 308 308 307 307 306 307 307 306 306 306 306 306 305 305 305 306 306 306 306 306 306 305 305 305 305 306 307 308 308 309 313 316 315 318 318 318 316 315 316 320 318 316 316 316 316 311 310 310 310 309 308 308 309 310 309 310 310 311 311 311 313 315 319 320 320 318 317 319 320 320 319 317 316 315 315 315 315 315 316
303 304 304 304 305 306 307 308 309 307 306 305 304 303 305 305 305 304 304 304 304 304 304 305 305 306 306 306 305 304 303 302 303 305 306 306 310 311 314 315 316 317 315 314 314 314 314 314 315 315 314 315 313 308 308 308 308 307 307 307 307 306 307 306 306 307 307 308 309 311 312 313 313 313 313 316 317 317 317 317 316 315 315 315 315 316 315
302 302 302 303 304 305 306 307 306 305 305 305 304 304 304 303 303 302 302 302 302 302 302 302 304 305 306 305 306 306 305 303 300 301 304 305 306 307 309 310 312 314 313 313 313 314 315 314 313 313 313 312 308 307 307 308 308 307 306 306 306 306 305 305 305 305 305 305 306 306 306 306 307 308 309 309 309 311 312 312 313 313 314 315 315 315 315
301 302 302 303 303 303 304 304 304 306 305 306 307 305 305 304 303 303 302 302 301 301 301 301 301 301 303 307 307 305 307 307 304 302 305 305 304 305 307 310 312 311 309 308 308 309 312 310 311 310 310 310 306 306 306 306 307 308 307 306 306 305 305 305 305 305 305 304 304 304 304 304 304 304 304 305 306 306 307 308 308 308 309 311 313 313 314
302 301 301 301 301 301 301 301 302 302 305 307 305 305 305 304 302 301 303 302 302 303 300 301 301 300 300 301 302 303 304 307 307 306 305 305 305 304 305 306 308 310 309 306 306 306 310 311 309 310 308 305 306 306 306 306 306 306 306 306 306 305 305 304 304 304 305 305 304 303 303 302 302 303 303 303 302 303 303 303 302 302 303 303 304 306 307
299 299 299 302 302 302 302 302 303 304 304 305 305 305 305 303 302 303 301 301 300 301 299 300 300 301 300 301 301 302 303 304 306 308 305 304 304 306 305 303 303 305 305 303 303 303 305 307 307 306 305 304 304 305 305 305 305 305 305 304 304 305 304 304 303 303 304 304 303 303 303 302 302 301 300 300 300 300 300 299 299 298 298 297 298 299 299
300 299 299 299 300 300 301 302 303 303 303 304 303 303 302 302 301 301 301 304 299 298 298 298 298 300 302 301 302 301 302 303 304 303 304 304 302 300 302 303 300 300 299 299 299 301 302 305 308 309 307 304 303 303 305 305 304 304 305 305 304 303 304 304 304 303 303 303 302 302 302 302 301 300 300 299 299 298 298 297 297 296 296 296 295 296 296
Wind_Speed
6 7 11 13 10 6 8 11 11 12 14 14 20 20 6 13 14 19 9 6 6 5 8 9 10 10 10 11 11 11 6 4 4 6 8 8 8 7 6 9 9 11 14 15 16 15 16 16 16 17 15 15 13 13 14 14 15 17 16 16 17 17 17 17 18 18 15 14 14 14 15 15 15 15 14 14 13 13 13 13 12 13 13 13 13 13 13
9 9 9 9 6 5 7 11 13 14 15 19 20 16 13 14 13 10 9 9 13 9 8 9 10 11 10 6 3 0 2 8 8 4 5 8 10 10 11 12 13 13 15 15 15 15 15 16 17 16 15 14 16 16 16 16 16 16 14 16 17 17 18 19 17 15 15 14 14 15 15 16 16 15 14 14 14 15 15 15 14 13 13 14 13 14 14
7 11 7 6 10 8 10 11 11 14 16 18 18 14 13 11 12 12 5 6 11 7 5 9 9 3 2 2 1 7 7 8 7 5 7 9 9 10 10 9 11 13 14 14 13 13 14 16 17 17 16 16 15 16 15 15 16 15 16 16 16 17 19 19 16 15 14 15 15 16 17 15 15 15 16 14 15 16 15 15 15 14 13 14 14 14 15
6 5 6 13 14 15 12 12 13 13 14 15 11 11 8 9 11 9 12 9 9 7 8 8 11 6 5 8 8 6 7 5 5 5 7 8 10 10 9 8 7 9 11 12 13 15 16 16 16 15 15 15 14 16 15 16 16 14 15 16 17 18 19 16 15 16 16 16 16 17 16 17 16 16 15 16 16 16 15 16 14 13 15 16 15 14 13
3 10 5 11 14 11 11 19 16 11 8 9 5 6 9 16 13 12 15 15 6 11 9 7 11 10 8 7 8 4 3 5 5 8 9 10 10 9 5 6 8 11 13 14 15 16 15 15 15 17 17 15 16 16 16 16 13 14 16 17 17 17 16 15 16 16 15 16 17 16 17 17 15 15 16 17 17 16 17 16 14 15 17 16 15 15 15
4 12 11 8 3 5 15 1 4 3 13 12 12 13 8 8 13 13 9 12 10 10 8 10 13 13 11 7 3 3 4 4 5 7 8 10 9 8 7 7 9 10 10 10 11 12 14 15 18 17 15 19 19 17 16 12 14 16 17 17 17 17 16 16 17 16 16 17 17 17 16 15 15 16 16 18 17 15 14 14 15 16 16 17 16 16 16
3 8 8 3 7 15 2 16 10 8 9 11 17 16 13 11 13 11 6 6 8 11 13 15 18 9 2 4 6 4 2 2 1 5 8 8 8 8 8 8 9 8 9 9 8 8 10 13 12 10 11 13 9 8 10 14 15 15 16 17 16 15 16 16 15 14 15 16 17 15 15 15 15 16 17 15 15 14 14 15 16 16 16 16 16 16 15
1 4 1 4 11 4 12 9 5 11 3 7 6 12 18 16 13 13 13 10 10 11 12 9 4 8 7 4 3 3 3 3 1 1 3 6 7 7 6 7 8 6 7 9 10 10 5 4 5 8 11 9 10 11 11 14 14 15 15 15 15 13 14 14 16 16 16 16 15 14 14 15 16 16 16 16 16 14 13 12 13 13 13 14 15 16 15
3 5 5 9 11 16 10 4 7 7 5 8 3 5 10 5 6 9 10 11 9 6 5 4 5 5 5 4 2 0 3 2 1 0 2 5 6 6 7 6 7 6 5 6 6 4 5 9 10 9 6 7 8 7 10 11 12 13 14 15 15 16 16 16 16 15 15 15 14 15 15 15 17 17 16 16 14 11 13 13 13 14 14 13 13 13 15
7 5 6 5 3 3 3 3 3 2 3 5 6 5 9 5 8 8 12 12 12 7 2 6 8 5 7 5 2 1 1 2 3 2 2 4 5 6 7 6 5 5 5 3 4 7 6 5 5 5 8 10 11 12 13 12 12 12 13 16 16 16 16 16 15 15 16 16 16 17 16 19 20 18 16 13 14 13 14 13 13 13 11 11 12 13 15
4 4 5 4 3 6 3 6 8 8 3 3 3 4 9 5 2 3 7 13 13 11 11 9 8 8 8 8 6 4 0 2 2 3 3 4 5 5 6 7 9 9 7 2 1 3 6 7 7 7 8 9 9 9 9 10 12 13 15 16 15 16 17 16 14 14 14 15 15 15 16 17 15 15 16 16 13 12 13 13 13 11 11 12 12 12 15
7 7 7 8 3 5 2 8 9 11 7 2 3 3 8 5 14 11 6 10 12 11 12 15 12 13 9 9 8 4 2 1 1 3 4 5 6 7 9 9 8 7 8 11 11 9 5 1 3 9 9 10 11 10 10 10 12 14 16 17 17 16 12 11 12 14 14 16 16 17 18 18 16 16 13 11 13 14 13 12 12 12 13 12 14 14 13
9 10 6 4 5 3 3 9 10 10 9 2 8 12 2 12 16 15 9 12 11 12 12 13 13 7 1 4 7 6 4 3 2 4 4 4 5 7 8 10 10 9 10 10 9 9 6 6 3 2 7 9 10 9 10 11 14 16 13 8 5 5 6 9 11 14 13 15 18 19 19 18 17 15 14 16 16 16 16 14 14 13 14 14 14 14 13
11 8 10 9 5 3 3 6 3 9 1 4 8 4 12 14 17 14 8 9 8 6 13 8 4 7 6 8 7 7 5 4 3 4 5 5 6 7 7 9 10 8 9 11 12 12 11 10 9 4 2 6 6 7 8 12 15 12 8 8 9 9 11 13 13 14 15 15 16 16 16 13 13 15 16 16 15 17 15 15 18 18 17 15 14 13 12
8 6 7 5 8 1 6 8 1 10 3 4 9 14 16 12 11 9 9 7 7 4 8 7 11 10 9 8 7 6 5 5 6 7 8 9 9 10 10 11 11 8 8 9 9 10 10 11 10 8 5 0 1 4 8 6 3 2 3 6 8 10 11 12 13 14 15 16 15 12 13 15 16 17 15 15 16 15 16 16 17 18 17 15 14 13 12
8 8 11 7 3 3 4 1 4 1 1 6 9 8 13 10 7 10 8 8 5 5 8 14 10 9 10 8 8 6 6 6 6 8 8 8 9 9 9 9 9 9 9 9 9 10 10 10 10 10 9 7 6 4 4 7 6 4 2 5 6 8 10 12 13 13 14 15 15 13 14 14 16 15 14 15 15 15 16 16 16 16 15 14 14 14 14
4 5 4 4 7 5 4 4 4 4 3 7 9 10 9 8 9 9 6 7 8 5 3 8 10 10 7 9 7 7 6 7 8 8 9 9 9 9 10 11 11 10 10 10 10 10 9 11 9 9 9 8 8 7 6 6 6 5 3 5 7 9 10 11 11 12 11 12 14 15 16 16 16 17 17 16 15 14 14 14 15 15 15 14 14 14 14
7 4 1 9 6 6 6 4 5 7 8 9 10 11 9 9 9 8 6 8 7 7 3 8 8 8 8 8 8 9 8 8 9 9 9 11 11 11 10 9 10 8 8 9 10 11 10 10 9 7 6 6 7 4 5 5 5 4 4 5 7 9 9 10 11 11 12 13 14 15 16 15 17 17 17 16 16 15 14 14 13 13 13 13 14 14 14
6 4 4 4 8 5 5 6 5 6 9 10 10 10 8 8 10 9 9 7 8 8 5 4 10 10 8 10 8 8 7 8 9 10 11 12 12 13 14 13 13 14 13 12 12 11 10 10 10 9 7 5 3 1 3 4 4 4 3 4 6 7 8 9 9 9 12 12 12 12 13 12 12 12 12 12 13 13 13 14 14 15 15 15 16 16 15
10 4 6 5 6 4 4 6 8 8 8 12 10 9 9 8 7 8 8 9 10 10 8 7 6 9 8 7 6 6 6 7 7 8 9 10 10 9 8 9 10 10 11 12 12 12 11 11 9 9 9 8 6 6 5 4 3 4 4 3 2 5 6 6 6 7 9 12 13 10 12 14 14 14 14 15 16 17 17 19 19 17 15 14 15 16 15
7 1 3 7 6 5 7 9 10 9 8 10 9 10 12 12 8 6 9 11 11 12 10 10 4 8 7 7 7 8 7 7 7 8 7 8 8 7 8 7 7 7 7 8 8 9 9 9 9 9 9 9 8 8 7 5 5 4 4 4 5 4 3 4 6 6 7 8 9 11 11 12 13 14 16 16 17 17 19 17 17 18 18 17 15 13 12
13 7 7 9 8 3 1 7 9 11 11 11 7 8 7 10 12 9 5 11 13 12 10 9 7 4 7 7 7 10 9 9 9 8 9 9 9 8 7 6 6 8 8 7 7 7 6 7 8 9 10 9 9 8 7 6 6 6 5 4 4 5 5 5 6 6 6 6 8 9 11 11 12 13 12 7 11 15 16 21 26 27 23 20 20 16 16
7 6 7 4 6 7 4 7 10 14 13 7 5 7 8 8 9 11 5 9 14 14 11 9 7 5 6 7 7 9 8 9 8 9 10 10 9 9 8 8 9 9 9 9 8 7 5 5 6 7 7 8 8 8 8 7 7 6 6 5 5 5 6 6 6 6 6 7 8 8 8 10 11 12 12 11 10 13 16 19 23 25 25 25 24 23 21
18 15 4 6 6 8 4 2 14 15 7 2 4 8 7 5 6 11 7 11 14 13 10 9 10 7 7 7 7 10 10 9 9 10 10 10 9 9 9 10 10 11 10 9 8 8 6 6 6 5 6 6 6 6 6 6 6 5 5 5 4 4 4 4 4 5 5 5 6 6 8 9 9 10 11 12 12 10 13 19 23 24 23 20 21 22 22
14 9 4 3 9 12 8 8 15 14 6 3 5 8 6 5 5 6 10 12 13 14 9 7 9 8 7 8 8 9 9 10 9 10 10 11 11 11 10 10 9 9 9 8 7 7 6 6 6 6 6 6 5 5 5 5 5 5 5 5 5 5 4 4 4 5 5 6 6 6 6 7 8 9 8 11 15 14 8 9 18 25 22 24 26 24 22
11 6 3 7 11 11 9 11 10 11 8 5 6 6 3 3 4 8 11 12 12 12 7 5 6 8 8 9 8 7 10 9 8 8 9 9 9 9 10 9 8 6 7 7 7 7 7 7 6 6 7 6 6 5 5 4 4 5 5 4 4 3 4 4 4 4 4 5 4 4 3 4 5 5 6 7 10 11 7 6 2 1 14 27 25 21 20
7 4 10 12 11 8 3 6 8 7 7 5 7 7 1 1 5 7 10 10 9 7 4 5 5 6 7 8 7 8 8 7 9 9 8 8 10 9 6 6 7 7 8 8 8 9 10 8 8 8 8 8 6 5 5 5 5 5 5 5 5 7 10 7 5 4 4 5 5 4 4 4 3 4 7 8 4 6 13 18 19 18 11 12 21 29 25
4 6 3 9 13 10 8 8 9 9 7 7 6 6 2 1 3 8 10 8 7 7 6 6 7 9 10 9 8 8 10 11 9 8 9 8 5 5 6 7 8 8 9 10 10 9 9 8 8 8 9 9 8 7 6 6 7 6 6 6 6 6 6 8 7 6 5 5 4 5 6 6 4 4 3 6 10 9 8 9 14 22 17 14 12 24 28
6 6 3 2 10 10 11 11 10 10 7 4 5 5 5 6 7 9 9 6 4 6 4 6 6 8 8 7 7 8 8 8 9 8 7 7 7 8 8 8 8 9 10 11 11 11 10 10 9 10 10 9 8 8 6 7 6 6 5 5 5 5 5 5 5 6 6 6 6 6 4 3 3 5 7 7 11 10 11 10 13 6 21 18 14 11 17
4 8 6 7 10 12 14 12 10 9 8 7 9 5 5 8 8 8 8 6 5 5 5 5 7 9 7 8 7 6 7 7 6 6 8 7 8 10 10 7 7 10 11 12 11 10 10 10 10 10 10 9 8 6 6 7 6 6 5 6 6 5 4 4 3 5 5 4 5 7 7 4 5 5 6 8 10 8 9 12 10 9 5 21 20 20 14
7 9 7 8 9 10 13 12 10 9 7 7 8 8 4 7 9 8 6 5 5 5 4 4 5 6 7 6 3 3 3 5 7 9 9 10 10 10 10 10 11 11 9 8 8 8 8 9 9 9 9 8 8 7 5 6 5 5 5 5 5 6 7 6 4 4 5 4 4 3 4 5 5 7 7 8 8 10 8 8 12 15 17 15 17 14 12
12 11 10 9 10 12 11 9 9 9 8 7 9 9 6 7 9 8 6 5 4 3 3 4 5 6 5 5 5 5 6 7 9 10 11 11 11 10 9 9 10 10 9 9 9 9 9 8 10 9 7 8 8 8 7 5 5 5 4 4 3 3 4 4 3 3 4 4 3 4 4 4 4 4 6 5 7 5 5 5 9 9 9 11 12 9 9
14 13 11 11 10 11 10 8 10 9 8 9 7 7 6 5 5 5 5 4 5 4 5 5 5 5 6 7 7 7 7 8 10 11 12 11 10 10 9 8 8 9 9 9 9 8 9 9 8 8 8 6 6 6 7 8 6 5 4 3 2 3 3 3 4 3 4 4 5 5 4 4 3 5 4 4 4 6 5 6 6 7 8 8 7 4 3
8 9 11 9 10 12 13 10 8 9 7 7 7 7 7 7 6 5 5 5 6 6 6 6 6 6 7 8 8 8 9 11 11 10 11 10 10 9 9 9 8 8 8 9 10 10 9 8 7 7 7 8 6 4 4 5 4 3 2 3 3 4 4 3 4 4 4 4 4 5 4 5 5 5 5 5 5 5 6 7 8 8 7 6 6 5 7
9 9 8 9 9 9 9 10 9 9 9 9 9 8 7 6 6 6 6 6 6 5 5 7 8 8 9 9 10 10 11 11 9 9 9 9 9 8 9 10 10 11 11 12 12 10 10 8 8 7 8 8 7 6 4 5 3 3 3 2 2 2 3 2 3 4 4 3 3 2 3 5 4 5 5 6 6 5 6 6 6 6 6 6 5 5 5
10 11 9 9 9 10 9 10 9 9 9 9 9 8 8 7 8 8 8 6 5 6 7 8 9 10 10 10 10 10 10 9 9 9 9 8 7 8 10 11 11 11 11 12 12 11 11 10 16 17 9 8 8 7 6 4 4 4 4 4 4 5 4 3 2 3 3 3 3 3 3 3 5 4 5 5 5 5 5 5 6 5 5 5 5 6 5
9 10 9 9 9 10 10 9 9 9 9 9 9 9 10 10 9 7 8 8 8 7 7 8 10 11 11 10 10 10 10 9 8 8 8 7 7 10 11 11 12 11 11 11 11 10 9 10 16 17 11 8 9 9 9 11 5 5 5 4 3 3 4 4 4 3 3 4 3 3 3 3 3 4 5 4 5 4 4 5 5 6 5 5 5 5 5
10 10 10 9 10 11 9 8 8 9 10 11 8 8 9 9 9 10 9 9 8 9 9 9 10 10 11 11 12 12 11 10 9 9 8 9 9 12 13 12 10 9 10 9 8 8 8 11 15 10 8 8 8 8 10 14 9 5 4 4 4 3 3 3 4 4 4 2 2 2 2 2 4 5 4 4 4 5 5 5 5 5 5 5 5 4 4
10 9 9 9 10 10 9 8 8 8 10 11 9 9 9 10 11 12 11 10 8 8 9 10 11 13 13 13 12 11 10 9 8 8 9 9 9 12 11 10 9 8 7 7 8 8 10 12 9 8 7 8 9 8 9 12 10 6 5 4 4 4 4 4 4 3 3 3 3 4 4 4 3 3 4 5 5 5 6 7 7 5 6 6 5 4 5
10 10 9 8 9 8 9 9 9 9 8 7 9 9 8 10 11 12 11 11 9 8 8 10 12 12 12 12 11 10 10 10 10 10 10 9 10 10 10 12 13 11 12 14 10 10 15 19 12 9 8 8 8 7 7 10 9 6 6 5 5 5 5 6 6 6 5 5 5 5 4 3 2 2 3 3 4 4 5 6 6 6 5 6 5 6 5
9 10 10 10 10 10 10 10 10 9 9 9 9 9 9 11 11 13 12 11 9 10 11 10 11 11 11 10 10 10 10 11 12 11 10 11 12 10 10 11 11 10 11 11 11 12 14 14 11 10 9 8 7 9 7 10 8 6 6 6 6 6 5 6 5 5 5 5 5 4 3 2 3 3 3 3 2 2 4 5 5 5 5 5 6 6 5
10 10 10 10 11 9 9 9 10 11 11 11 11 12 13 13 12 11 10 10 11 11 12 12 14 11 9 10 10 10 10 11 11 13 14 13 11 9 10 10 10 10 17 15 14 13 11 11 11 11 10 9 9 16 14 8 7 7 7 8 7 6 7 6 5 4 4 4 4 4 5 5 4 4 3 3 3 2 1 2 3 4 6 6 6 5 5
12 13 11 10 9 10 11 11 12 12 13 12 11 10 10 11 12 12 12 12 11 12 12 11 12 13 12 11 12 12 10 10 10 10 11 11 12 11 9 8 8 11 19 13 12 10 11 10 10 10 17 14 12 17 15 8 7 8 7 7 8 8 7 7 7 5 4 3 3 4 5 4 5 3 4 4 4 4 4 4 5 5 5 5 4 4 3
12 12 11 11 10 10 11 12 13 13 12 11 10 11 13 12 12 12 12 12 13 12 12 12 12 12 12 12 12 10 10 9 9 8 9 9 11 12 10 9 8 13 20 11 10 10 11 11 11 17 21 22 22 20 11 9 9 9 9 9 8 8 8 9 8 9 9 7 6 4 3 3 2 2 3 3 3 3 5 6 6 5 4 5 6 5 3
12 11 12 12 11 11 10 11 12 12 11 11 13 13 12 13 12 12 13 13 13 12 11 11 11 10 10 11 10 9 9 9 9 8 9 9 10 9 9 11 12 11 14 17 10 10 11 12 17 24 21 23 22 20 11 10 10 10 10 9 9 9 9 10 10 9 9 9 8 6 6 6 5 4 4 3 2 3 5 6 6 6 6 5 5 5 5
13 12 12 13 12 10 8 9 8 10 13 14 13 13 11 11 12 12 12 13 13 12 11 11 11 9 8 8 8 9 10 10 9 9 8 7 8 6 9 12 10 12 18 18 11 10 11 21 23 21 23 23 22 14 11 11 11 10 11 11 11 10 10 9 9 8 9 9 9 9 7 5 6 6 6 5 4 4 4 5 4 3 5 6 7 6 5
11 12 12 10 9 10 10 11 12 14 14 13 12 10 9 11 11 10 10 11 11 11 11 11 11 10 9 8 7 7 8 9 9 9 8 7 8 9 12 16 15 18 15 12 11 12 12 14 17 21 21 21 20 10 10 10 10 11 11 11 11 10 10 10 10 9 9 9 9 10 11 11 9 8 8 6 5 5 6 6 5 3 1 5 6 5 5
11 11 10 11 11 11 12 12 13 12 11 9 8 8 8 10 10 10 10 10 12 11 12 11 10 10 10 10 10 9 6 6 9 8 7 7 7 7 8 8 11 17 16 14 16 16 22 21 21 21 21 19 12 9 9 9 10 10 10 10 10 10 10 10 10 10 10 10 10 10 10 10 9 9 8 8 8 8 8 7 7 6 6 4 3 3 4
9 9 9 10 11 11 10 10 10 9 8 7 7 7 8 10 10 10 10 10 11 11 10 10 11 10 9 9 9 8 8 7 7 6 5 6 7 8 8 10 16 16 11 8 9 9 18 21 19 19 19 15 9 8 9 9 10 10 10 10 9 9 10 9 9 9 9 10 9 10 9 10 9 9 9 9 9 9 9 9 9 8 7 6 6 6 4
10 10 11 10 10 10 9 8 8 7 6 7 8 7 7 10 10 9 7 8 9 9 9 8 8 8 8 8 8 8 8 8 8 8 8 9 9 9 8 8 9 15 14 9 8 8 13 19 18 17 13 8 8 9 8 8 8 9 9 10 9 9 10 10 11 13 10 10 10 10 10 9 9 10 10 9 10 9 9 9 8 11 17 12 8 7 6
9 9 8 8 8 8 9 8 6 7 7 8 8 7 9 9 9 8 7 7 6 8 7 7 8 8 8 8 8 8 8 9 9 11 9 9 9 11 12 9 10 10 9 9 7 7 7 7 8 10 10 9 8 8 8 8 8 8 9 9 9 8 8 10 9 10 10 10 9 9 9 9 9 9 9 9 9 9 9 9 9 9 9 8 8 7 8
8 6 6 7 7 8 9 9 9 8 7 7 7 7 8 7 7 7 8 11 8 7 6 7 9 8 8 8 8 8 9 10 8 8 10 10 9 7 9 12 8 9 8 7 7 7 7 8 9 12 11 8 6 7 9 12 9 8 9 9 9 9 9 9 9 9 9 9 9 8 9 9 9 9 9 9 8 9 9 9 9 8 8 8 8 9 8
Wind_Direction
319 287 279 284 290 238 251 256 256 241 215 200 212 220 191 165 208 232 223 175 189 241 228 225 219 204 209 218 226 230 245 292 253 225 235 242 244 248 229 220 211 206 203 204 203 198 196 193 192 196 196 199 198 200 199 193 190 193 188 187 191 193 194 199 203 202 198 195 197 195 195 196 198 198 196 196 196 197 199 202 204 205 203 204 205 208 210
314 298 286 286 272 295 275 256 254 248 237 225 216 215 206 200 227 233 223 175 201 206 231 223 229 221 207 210 201 315 271 254 258 259 251 243 239 229 222 214 205 205 208 206 205 199 195 191 193 192 194 195 195 196 195 190 192 193 181 190 191 193 197 203 202 197 194 193 194 193 194 197 199 196 195 195 196 200 202 202 202 201 201 204 205 207 206
312 300 299 291 318 303 288 282 264 248 242 240 232 220 215 206 239 239 224 180 226 246 233 241 247 262 28 22 171 205 227 249 254 251 248 251 250 245 237 224 211 209 209 206 203 200 199 195 192 191 193 195 194 197 194 191 194 188 184 189 191 193 201 203 196 192 192 195 192 194 197 198 197 195 195 195 199 202 202 201 201 199 199 204 206 206 206
313 293 334 323 319 312 278 263 259 250 241 243 237 229 216 193 213 220 240 235 234 261 266 268 268 284 261 235 236 237 246 266 287 259 254 249 246 246 244 240 229 221 215 206 198 199 200 198 193 190 192 192 189 196 192 193 193 184 187 191 194 199 203 197 191 192 195 192 194 198 196 199 196 195 195 197 201 201 201 201 201 197 202 206 206 205 207
250 279 311 322 314 320 298 259 253 239 254 249 261 250 208 214 193 208 218 231 207 213 212 221 263 251 247 247 245 248 300 269 247 255 251 247 249 249 238 236 226 219 215 211 205 202 195 190 191 197 192 184 192 194 190 195 179 180 190 194 198 202 200 192 194 195 193 193 197 197 199 198 195 194 197 201 202 201 202 201 197 200 205 204 206 206 206
271 296 315 309 321 257 241 72 345 239 223 214 226 240 223 224 197 225 203 215 204 204 184 193 236 240 233 214 226 189 188 250 287 280 276 279 280 281 266 242 233 230 224 218 211 202 196 196 197 198 188 191 195 190 189 174 176 187 189 196 197 200 196 195 195 194 192 195 197 199 197 195 195 198 200 204 203 202 202 199 201 204 204 205 206 206 208
280 293 320 333 228 239 10 330 351 335 277 218 211 232 225 212 225 240 234 228 214 209 198 199 219 220 122 121 117 131 148 165 214 277 301 301 301 291 288 270 248 231 217 214 208 202 204 201 196 178 190 202 189 171 169 177 187 186 193 196 198 198 196 198 194 193 194 197 199 197 194 195 197 202 204 206 204 203 202 203 203 205 205 207 208 208 208
251 338 282 233 236 263 319 314 356 341 27 17 342 259 235 221 206 206 224 223 215 213 215 220 189 143 155 120 106 102 119 127 153 283 305 308 309 309 307 291 273 237 209 207 203 205 193 176 187 193 198 183 173 185 179 185 185 190 191 194 198 195 198 196 195 195 194 196 196 193 194 195 200 204 205 204 205 203 204 208 210 210 212 211 210 209 207
174 213 230 246 306 318 329 4 356 22 355 330 15 261 277 252 202 187 213 227 240 243 235 172 151 139 113 84 56 148 61 61 87 241 277 295 299 311 314 299 289 282 254 195 195 177 171 175 171 185 158 155 174 166 182 190 187 193 191 195 198 197 199 197 197 194 192 192 191 192 193 197 204 206 204 205 206 200 207 210 209 211 214 213 213 210 209
175 216 280 311 338 272 273 169 282 239 264 250 196 155 282 249 232 213 196 210 223 214 147 153 154 138 117 157 204 243 356 24 21 344 307 296 303 331 329 324 339 344 332 297 187 151 154 168 168 143 161 168 172 181 187 186 186 192 195 202 201 198 200 197 194 191 192 191 192 193 193 199 202 202 202 202 203 197 205 206 210 214 213 218 218 215 212
162 191 224 221 218 243 200 306 312 312 279 214 204 132 262 307 296 261 212 207 203 181 163 160 143 139 164 211 222 236 295 330 19 24 352 338 328 336 346 348 351 357 348 350 165 136 146 161 175 160 155 160 170 187 188 188 191 194 201 205 200 200 202 196 191 190 190 192 194 194 199 206 205 203 201 201 197 193 205 206 210 207 208 216 219 218 219
184 185 212 238 208 255 305 314 325 316 320 271 149 206 260 328 341 326 281 228 199 188 169 157 168 162 182 202 216 166 111 301 16 54 26 0 352 3 6 4 3 9 27 57 50 47 44 315 206 165 158 162 176 181 187 186 196 206 208 206 202 204 198 186 188 190 191 192 193 195 201 203 201 203 198 194 197 200 202 202 205 204 206 211 215 218 217
201 202 245 281 289 286 342 328 322 326 327 87 169 218 271 324 320 309 291 267 229 177 164 163 175 226 202 121 110 100 76 81 28 38 46 32 19 20 19 20 9 21 30 47 54 45 22 9 349 206 163 162 178 180 176 184 206 214 215 211 205 199 182 188 192 195 195 196 197 200 202 201 198 195 193 199 199 198 199 198 199 203 205 207 211 215 213
212 201 216 233 252 241 321 301 16 343 31 209 224 306 312 299 303 300 302 293 258 203 169 172 131 133 123 99 91 87 74 66 36 26 32 45 57 42 42 34 32 36 32 31 32 27 20 16 16 14 143 172 175 176 183 203 212 211 194 186 184 181 187 194 196 197 198 201 202 205 205 199 196 200 201 200 199 200 201 197 197 200 200 203 206 209 208
221 199 203 214 242 283 346 296 16 32 71 285 307 307 304 300 288 320 331 333 301 204 114 109 127 126 113 107 98 88 72 59 39 29 26 33 32 27 24 27 29 41 50 46 39 30 21 23 24 22 30 80 192 185 209 235 317 328 214 196 191 191 194 197 199 200 202 202 203 204 203 202 203 206 202 199 201 201 200 202 202 202 202 199 202 206 207
195 190 205 209 179 177 316 11 106 339 135 282 306 311 300 319 342 346 333 334 347 319 130 134 126 121 116 107 113 98 77 68 61 52 46 44 42 41 39 38 32 41 55 56 56 48 37 29 28 28 38 45 35 27 355 354 342 341 207 206 198 198 202 205 205 206 205 203 202 201 203 202 206 209 204 204 203 201 202 201 203 204 202 199 198 203 205
251 220 183 141 136 128 109 91 136 140 35 5 343 328 309 325 353 342 344 1 2 349 86 103 114 111 104 106 102 100 84 72 63 55 47 42 41 42 38 35 32 35 41 48 53 53 45 40 37 31 30 40 38 30 345 337 331 330 269 200 199 208 211 211 211 212 208 207 206 205 204 200 203 208 208 202 204 207 206 209 209 205 202 197 200 203 201
244 262 69 132 129 131 127 136 130 104 62 35 4 344 336 357 351 345 3 358 0 345 2 108 96 98 110 103 94 85 77 69 62 53 43 33 28 32 37 42 40 52 55 48 42 42 46 44 45 47 45 46 46 352 322 322 318 314 282 218 206 213 215 214 214 211 210 215 214 214 211 207 209 208 206 201 203 201 200 207 210 212 208 199 200 199 199
273 224 177 127 139 150 152 140 122 80 73 58 13 340 339 354 352 352 4 16 23 356 350 85 108 103 95 94 83 76 68 61 54 51 50 46 38 32 27 13 13 19 24 30 31 33 38 30 30 31 36 43 54 347 324 325 330 329 296 249 237 223 219 220 220 215 217 217 218 218 216 217 218 216 211 208 207 205 200 202 205 209 209 202 199 196 193
248 249 160 147 142 144 133 98 70 55 46 56 30 338 337 342 354 2 11 32 33 12 9 5 73 84 81 81 81 76 69 66 61 58 58 59 58 50 43 31 32 29 29 25 18 19 22 18 21 21 20 17 7 2 355 360 352 352 359 0 293 273 266 257 237 228 228 230 226 223 218 213 213 211 209 205 204 204 203 202 201 203 203 207 202 194 194
281 281 154 182 169 76 67 81 82 76 57 57 44 2 347 335 333 20 29 43 48 31 4 336 13 91 100 104 99 95 83 77 72 70 72 71 69 68 62 56 54 59 51 40 29 22 16 4 5 10 9 7 1 3 357 357 6 31 27 355 340 323 302 275 264 250 241 236 231 232 230 225 224 218 210 208 210 215 212 206 203 197 196 198 200 200 187
249 213 194 176 169 196 85 80 91 79 58 51 34 45 6 342 325 311 72 74 69 57 22 347 308 88 100 93 93 87 83 81 83 80 77 73 71 68 66 67 64 63 60 60 50 35 11 359 2 4 3 359 356 355 354 352 3 16 5 3 2 358 360 358 353 339 320 288 266 251 240 233 229 233 239 261 243 221 215 211 205 202 193 192 189 183 179
241 252 203 215 136 115 129 154 99 69 53 36 38 58 49 11 330 304 329 71 68 60 37 352 332 358 44 55 67 79 74 73 72 75 72 69 65 63 59 60 54 59 60 60 62 57 34 13 14 11 6 359 351 350 350 349 353 3 0 7 22 20 14 13 8 4 360 351 347 325 294 273 252 239 232 237 254 270 251 215 206 205 200 196 184 175 168
275 274 209 189 141 132 147 149 96 82 67 358 54 50 51 30 348 323 350 45 62 60 37 356 338 338 31 30 47 68 60 54 59 61 59 57 53 53 52 56 53 49 50 49 49 48 38 34 30 16 6 354 349 341 348 348 354 3 20 26 25 19 24 25 28 35 28 22 13 2 350 334 310 281 253 240 246 268 269 223 203 196 189 176 168 167 165
252 265 247 185 118 114 116 113 103 114 151 156 89 67 36 33 27 349 10 33 47 53 48 351 331 347 16 31 32 52 59 53 45 55 55 56 53 50 47 44 41 47 43 43 42 42 39 38 41 29 22 12 357 357 353 4 3 25 22 23 16 5 360 12 26 36 42 37 27 16 1 346 333 320 291 267 247 239 279 285 209 184 174 164 160 159 150
246 225 161 111 105 112 118 99 90 116 129 134 96 83 42 24 53 50 36 36 40 43 23 338 339 5 20 26 35 41 55 48 45 47 51 50 47 46 42 42 42 45 51 47 44 39 37 32 32 32 30 16 10 6 11 18 34 45 43 38 22 33 44 33 32 29 34 43 38 30 0 338 330 313 288 269 273 271 239 153 21 339 156 147 137 125 126
252 177 132 102 102 110 107 118 140 130 118 119 117 120 173 296 44 48 58 40 35 48 22 353 347 5 28 17 38 43 58 53 49 42 43 41 45 44 34 32 34 45 52 49 41 38 39 35 29 29 22 7 352 0 17 24 26 33 36 40 35 23 20 29 39 35 37 35 25 352 333 311 311 337 332 313 288 235 224 217 182 157 137 132 130 131 131
269 199 222 144 153 154 132 107 105 107 109 115 116 117 153 260 84 73 56 47 21 33 36 9 21 31 40 17 38 48 46 50 52 44 41 33 14 12 28 33 39 39 44 42 34 28 29 31 28 24 14 358 355 354 26 33 34 32 36 38 39 36 34 32 33 31 28 34 24 33 23 343 344 76 100 45 4 334 11 301 209 150 128 132 135 133 130
232 193 328 314 128 121 117 110 106 104 101 95 101 114 113 83 64 60 63 49 7 336 14 44 48 48 47 24 23 46 53 54 54 49 48 40 29 22 16 21 26 37 42 38 30 21 21 25 23 23 8 356 359 4 17 42 39 35 33 34 35 41 44 48 51 51 35 14 9 4 28 77 40 10 25 30 65 19 342 27 4 336 103 126 105 57 100
195 133 124 115 120 123 116 112 114 111 112 117 110 98 104 100 81 79 76 63 44 43 344 343 41 53 50 48 27 25 48 57 63 62 56 46 40 35 31 15 35 40 37 34 24 17 22 22 22 20 3 348 354 4 19 39 39 29 21 19 24 29 36 35 51 62 72 55 24 349 329 357 46 62 65 57 57 50 37 343 14 20 283 122 112 113 100
119 114 124 121 113 104 105 111 112 110 113 118 114 113 105 101 102 91 83 82 73 64 34 34 31 47 51 56 33 22 36 48 51 51 49 46 43 39 35 33 42 36 29 19 12 13 19 23 28 18 355 350 354 356 26 49 39 35 30 30 33 29 31 38 34 57 67 59 47 22 6 347 28 51 54 62 52 64 18 25 17 24 4 42 81 89 97
120 126 124 115 112 110 105 108 110 113 117 118 107 97 103 104 105 109 113 102 105 109 87 69 60 58 58 58 55 51 51 52 52 48 44 41 39 36 38 43 45 42 35 24 20 16 15 14 19 2 358 7 0 359 358 21 62 56 45 42 42 33 29 18 30 35 63 68 69 69 47 28 31 57 91 72 79 62 78 69 67 47 26 37 50 66 110
131 127 120 120 111 104 104 108 109 106 101 97 97 106 102 97 93 93 95 97 88 74 73 68 62 65 67 65 61 52 51 54 52 47 43 38 33 31 31 37 39 42 39 31 26 24 22 14 352 341 348 1 26 19 14 8 10 35 38 44 37 35 44 34 11 25 67 74 61 51 41 70 92 85 46 90 91 99 102 87 81 81 92 98 99 110 159
118 125 131 132 126 125 122 114 104 98 92 89 88 85 79 74 77 76 79 79 80 76 75 79 75 67 63 61 58 53 51 53 46 42 39 37 33 33 33 37 35 37 37 31 28 23 16 7 355 343 347 343 351 32 59 46 17 354 341 37 20 53 36 4 27 30 33 48 67 81 78 67 67 50 62 62 71 89 78 74 72 79 76 75 88 94 70
66 66 70 85 88 92 96 105 105 102 100 91 79 69 66 64 68 75 79 77 78 88 92 85 78 71 65 61 56 54 52 53 50 47 43 37 37 35 38 38 33 31 29 27 22 13 5 358 1 7 0 356 350 343 14 65 63 51 349 331 344 59 70 61 44 56 57 45 13 20 71 83 62 81 81 80 79 70 70 69 72 79 91 94 87 83 79
55 65 56 58 67 70 75 78 82 85 86 87 85 82 75 75 71 64 63 61 67 74 76 77 77 74 67 61 58 53 54 51 51 47 43 37 35 41 44 41 35 32 26 23 15 4 356 357 7 16 18 5 359 349 347 35 46 30 30 26 23 17 21 31 3 38 45 68 73 28 22 56 90 78 79 86 73 68 72 78 76 78 89 90 95 104 98
55 72 76 68 67 74 74 76 80 81 82 85 87 85 80 77 79 81 76 69 65 67 70 71 70 69 66 61 60 57 51 49 49 49 45 40 45 50 46 43 36 31 25 25 359 348 350 4 11 15 15 7 4 1 10 31 45 28 11 12 49 36 347 348 4 17 16 34 23 61 72 66 55 59 68 68 77 76 78 89 90 90 91 92 110 122 130
60 66 67 72 77 73 69 71 80 88 88 82 79 83 86 86 80 73 68 67 63 60 60 61 65 67 65 58 53 49 45 42 45 48 47 43 43 53 45 41 32 23 27 12 340 347 359 12 14 14 9 9 359 357 4 21 33 43 44 26 6 5 358 25 17 4 8 8 48 42 70 95 113 105 91 81 96 99 104 100 107 115 117 121 131 151 106
53 61 67 65 63 65 70 70 66 66 74 81 75 71 74 82 82 75 65 56 43 36 45 56 59 60 57 58 55 48 43 40 43 47 46 43 45 53 51 40 33 26 21 6 8 11 14 18 18 15 12 5 3 359 3 13 21 28 29 16 26 21 24 22 22 18 4 348 4 22 37 47 61 100 130 135 136 141 144 144 139 137 133 138 142 123 115
37 40 44 61 69 65 67 66 62 62 55 59 75 75 70 74 76 79 75 67 55 54 55 61 62 62 59 58 56 52 43 42 42 41 39 41 43 45 42 34 21 17 17 22 21 19 19 21 19 16 9 6 10 9 7 13 18 23 22 30 9 21 10 14 22 25 20 16 28 39 58 62 92 126 119 122 139 146 139 138 137 137 133 135 136 126 127
44 52 45 43 59 58 58 61 61 55 57 57 58 62 63 67 67 66 64 63 56 56 57 61 68 66 63 62 61 57 53 52 51 47 43 45 44 39 39 34 11 13 19 25 25 21 19 20 17 14 8 8 1 21 14 13 15 11 24 24 31 27 23 26 28 26 17 20 29 39 54 37 33 39 38 64 79 82 112 138 143 131 123 133 135 130 128
51 53 63 58 58 63 65 64 66 61 54 52 54 55 57 62 66 69 66 66 64 58 56 57 63 67 65 63 61 53 49 47 51 50 46 45 40 34 38 28 9 17 23 26 23 23 17 15 15 19 20 16 17 27 30 21 13 16 13 19 18 12 10 7 13 15 17 25 27 26 21 31 43 45 48 73 68 43 13 87 108 111 121 129 129 128 129
41 48 52 51 49 54 61 61 62 61 57 48 49 55 60 62 65 64 61 58 59 61 59 54 51 52 53 54 54 48 39 36 41 46 53 50 43 41 43 29 16 25 29 30 28 26 22 14 18 23 29 33 29 30 31 23 19 15 17 16 20 22 16 12 11 8 14 28 37 22 20 32 39 38 15 26 41 62 54 35 39 47 56 49 52 93 109
47 48 47 51 50 52 58 62 62 60 58 49 47 55 59 58 57 62 64 60 54 52 57 56 54 53 52 54 55 50 41 35 36 36 48 43 40 31 25 31 28 31 34 32 28 29 27 23 25 27 29 31 33 32 29 24 20 22 18 17 16 15 15 14 11 13 13 12 11 17 26 29 51 120 122 105 109 110 100 90 89 81 87 118 115 96 85
46 47 51 53 51 51 52 57 64 70 70 64 54 49 52 59 58 55 61 61 57 53 49 51 52 52 56 56 59 58 54 46 40 35 44 40 39 23 10 26 33 35 35 37 33 30 30 32 31 34 34 33 34 35 33 25 24 25 22 21 21 19 17 17 13 7 4 1 1 5 23 34 18 360 2 20 35 67 93 104 114 135 136 104 88 109 116
46 43 44 47 45 45 49 59 65 67 66 64 59 50 49 56 61 59 57 62 61 57 56 56 54 47 46 59 66 65 62 54 42 36 39 41 45 25 24 39 36 40 40 41 34 31 30 32 35 35 38 38 37 35 30 30 29 28 28 27 25 24 23 18 17 14 10 9 4 4 4 6 21 15 13 16 15 22 52 83 104 90 90 112 120 128 148
42 44 40 44 46 45 50 55 57 60 61 60 56 51 45 53 59 61 61 62 64 61 56 55 54 51 49 48 45 49 60 61 47 31 27 25 34 39 39 39 41 41 43 41 42 38 35 35 36 38 39 41 42 33 30 30 30 30 30 31 30 30 27 25 22 16 14 17 15 14 18 21 17 17 12 17 29 41 36 44 43 16 96 116 122 142 152
39 40 38 38 42 43 47 50 54 57 58 63 70 67 64 64 63 59 57 59 58 57 53 49 46 43 42 43 44 43 32 54 67 35 11 24 30 33 35 42 41 42 41 37 37 37 37 38 40 40 42 42 38 30 27 29 31 30 30 29 27 25 24 24 24 20 18 19 19 19 18 20 17 19 21 26 22 28 31 40 34 21 360 21 72 128 154
43 45 42 41 42 44 49 53 54 56 58 59 63 65 65 69 63 57 53 55 56 56 52 46 42 37 32 34 38 37 37 39 61 60 15 32 34 33 30 35 40 40 38 33 30 28 31 33 34 37 39 42 38 30 30 29 32 35 31 29 28 27 25 26 24 17 23 25 23 27 24 24 22 23 20 26 26 26 30 37 39 28 15 16 21 12 359
37 40 40 39 40 38 39 49 49 50 57 62 63 58 59 63 60 45 41 51 63 65 57 48 41 33 31 29 27 31 29 35 43 45 39 36 40 42 33 32 35 40 39 34 26 21 23 30 31 32 33 30 31 34 32 31 30 33 33 32 32 32 31 28 33 33 29 29 30 33 32 30 27 27 29 29 31 28 28 30 32 31 31 28 18 15 15
35 37 34 35 42 44 44 44 43 47 58 60 66 64 64 67 69 59 49 43 51 57 56 53 42 33 30 29 28 26 29 31 36 42 41 38 34 41 43 36 34 33 32 32 24 20 11 19 29 30 28 25 22 26 29 29 25 31 33 30 29 27 27 28 27 25 27 27 26 28 32 30 33 34 32 29 29 32 35 36 36 34 34 28 23 20 17
41 33 27 33 43 48 46 40 35 40 46 53 57 60 67 70 71 62 53 48 50 51 48 54 46 26 27 30 31 30 29 36 37 34 41 40 38 29 31 37 32 28 25 22 18 17 16 14 22 32 34 28 19 21 27 30 28 27 27 28 31 29 31 30 30 30 28 25 26 27 28 28 28 33 35 35 36 35 33 35 38 41 42 38 33 29 25